[[{"header":{"parameterUnit":"m.s-1","parameterCategory":1,"la1":30.2991,"la2":30.254,"lo1":-89.0895,"lo2":-89.0444,"dy":0.0017,"dx":0.0017,"nx":28,"ny":28,"refTime":"2025-09-02T03:00:00:Z","depth":0,"parameterNumber":2,"parameterNumberName":"U-component_of_WINDS"},"data":[0,0,0,0,0,0,0,0,0,0,0,0,0,0,0,0,0,0,0,0,0,0,0,0,0,0,0,0,0,0,0,0,0,0,0,0,0,0,0,0,0,0,0,0,0,0,0,0,0,0,0,0,0,0,0,0,0,0,-1.146,-1.146,0,-1.1434,-1.1434,-1.1434,-1.1383,-1.1382,-1.1381,-1.138,-1.1355,-1.1355,-1.1355,0,0,0,0,0,0,0,0,0,0,0,0,0,-1.1469,-1.1469,-1.146,-1.146,-1.146,-1.1434,-1.1434,-1.1433,-1.1383,-1.1382,-1.1381,-1.138,-1.1354,-1.1355,-1.1355,0,0,0,0,0,0,0,0,0,0,0,0,0,-1.1456,-1.1469,-1.146,-1.1432,-1.1429,-1.1434,-1.1434,-1.1433,-1.1383,-1.1382,-1.138,-1.1379,-1.1354,-1.1355,-1.1355,-1.1387,0,0,-1.1356,-1.1356,0,0,0,0,0,0,0,0,-1.1457,-1.1456,-1.1436,-1.1434,-1.143,-1.141,-1.1427,-1.1418,-1.1384,-1.1401,-1.138,-1.1378,-1.1374,-1.1373,-1.1371,-1.1386,-1.1385,-1.1356,-1.1356,-1.1357,-1.1357,0,0,0,0,0,0,0,-1.1458,-1.1457,-1.145,-1.1436,-1.1432,-1.142,-1.1417,-1.1425,-1.1396,-1.1399,-1.1395,-1.1393,-1.1373,-1.1371,-1.137,-1.1384,-1.1356,-1.1357,-1.1357,-1.1357,-1.1425,-1.1426,0,0,0,0,0,0,-1.1463,-1.1458,-1.1451,-1.1449,-1.144,-1.1422,-1.1418,-1.1418,-1.1396,-1.1391,-1.1394,-1.1391,-1.1371,-1.137,-1.1369,-1.1406,-1.1357,-1.1357,-1.1357,-1.1423,-1.1425,-1.1427,0,0,0,0,0,0,-1.1463,-1.1463,-1.1452,-1.1453,-1.145,-1.1423,-1.1424,-1.1419,-1.1417,-1.1392,-1.1387,-1.1398,-1.137,-1.1369,-1.1383,-1.1404,-1.1357,-1.1357,-1.1421,-1.1424,-1.1426,-1.1479,0,0,0,0,0,0,-1.1464,-1.1463,-1.1475,-1.1453,-1.145,-1.1466,-1.1425,-1.1419,-1.1418,-1.1413,-1.1394,-1.139,-1.1369,-1.1383,-1.1384,-1.1404,-1.1358,-1.1419,-1.1423,-1.1425,-1.1475,-1.1483,-1.1489,0,0,0,0,0,-1.1464,-1.1491,-1.1475,-1.1475,-1.1464,-1.1467,-1.1466,-1.144,-1.142,-1.1431,-1.1415,-1.1391,-1.1402,-1.1385,-1.1385,-1.1406,-1.1418,-1.1422,-1.1425,-1.1472,-1.1481,-1.1489,0,0,0,0,0,0,-1.1516,-1.1487,-1.147,-1.149,-1.1482,-1.1459,-1.1472,-1.1451,-1.1448,-1.1444,-1.1413,-1.1409,-1.1428,-1.1418,-1.14,-1.1436,-1.1406,-1.141,-1.1442,-1.145,-1.1457,-1.1459,-1.1358,0,0,0,0,0,-1.1529,-1.1534,-1.1509,-1.1529,-1.1526,-1.15,-1.15,-1.1482,-1.1471,-1.1467,-1.1453,-1.1444,-1.1446,-1.1447,-1.1448,-1.1474,-1.1469,-1.1488,-1.1495,-1.1501,-1.1505,-1.1519,-1.1527,-1.1439,-1.1439,-1.1439,0,0,-1.1558,-1.1543,-1.1547,-1.1539,-1.153,-1.1536,-1.1497,-1.1505,-1.1509,-1.1469,-1.1481,-1.147,-1.1459,-1.148,-1.1488,-1.1472,-1.1529,-1.1506,-1.1511,-1.1511,-1.1523,-1.1532,-1.1539,-1.1441,-1.1441,-1.144,0,0,-1.1612,-1.1601,-1.1617,-1.1609,-1.1596,-1.1578,-1.1582,-1.1563,-1.1554,-1.1566,-1.1536,-1.1541,-1.1544,-1.1538,-1.1535,-1.1588,-1.1565,-1.1589,-1.1626,-1.164,-1.1647,-1.1653,-1.1672,-1.1679,-1.1592,-1.1592,-1.1593,0,-1.1649,-1.1656,-1.1628,-1.1638,-1.1635,-1.1599,-1.1615,-1.1609,-1.1597,-1.1596,-1.1579,-1.1583,-1.1572,-1.1591,-1.1604,-1.1603,-1.1607,-1.159,-1.1648,-1.1654,-1.1659,-1.1677,-1.1684,-1.1595,-1.1595,-1.1595,-1.1594,0,-1.1703,-1.1708,-1.1723,-1.1712,-1.1711,-1.1724,-1.1698,-1.1701,-1.1683,-1.1668,-1.1681,-1.1668,-1.1665,-1.1668,-1.165,-1.1684,-1.1675,-1.1653,-1.1622,-1.1671,-1.1687,-1.1694,-1.16,-1.1599,-1.1598,-1.1597,0,0,-1.1789,-1.1762,-1.1768,-1.1763,-1.1746,-1.175,-1.1762,-1.1758,-1.1762,-1.1755,-1.1764,-1.1768,-1.1748,-1.1745,-1.1726,-1.1738,-1.1782,-1.1714,-1.1714,-1.1728,-1.182,-1.1837,-1.1845,-1.1766,-1.1768,-1.1769,-1.1821,0,-1.184,-1.1858,-1.1834,-1.1858,-1.1863,-1.1828,-1.1839,-1.183,-1.1816,-1.1819,-1.1804,-1.1808,-1.1781,-1.1779,-1.1789,-1.1774,-1.18,-1.177,-1.1776,-1.1776,-1.178,-1.1854,-1.1871,-1.1921,-1.1827,-1.1828,-1.1829,0,-1.1903,-1.1898,-1.1923,-1.1904,-1.1906,-1.1915,-1.1911,-1.1914,-1.1903,-1.1892,-1.1889,-1.1867,-1.1878,-1.1848,-1.1863,-1.1843,-1.1844,-1.1838,-1.1839,-1.1839,-1.1806,-1.1856,-1.1937,-1.1944,-1.1839,-1.1838,-1.1837,0,-1.1964,-1.1964,-1.1979,-1.1975,-1.1954,-1.1962,-1.1954,-1.1942,-1.1942,-1.1938,-1.1938,-1.1935,-1.1934,-1.1933,-1.1911,-1.1891,-1.193,-1.1898,-1.1922,-1.1922,-1.1932,-1.1931,-1.2014,-1.1932,-1.1932,-1.1931,-1.1931,0,-1.2024,-1.204,-1.2006,-1.2015,-1.2033,-1.2005,-1.2023,-1.2011,-1.2001,-1.2008,-1.1978,-1.1985,-1.1955,-1.196,-1.1942,-1.1958,-1.1958,-1.195,-1.1945,-1.1953,-1.1954,-1.1954,-1.195,-1.1933,-1.1933,-1.1933,-1.1932,0,-1.2095,-1.2073,-1.2087,-1.2066,-1.2061,-1.2075,-1.2057,-1.2065,-1.205,-1.2059,-1.206,-1.2036,-1.2039,-1.2017,-1.2016,-1.2005,-1.2029,-1.2018,-1.2033,-1.203,-1.2055,-1.2054,-1.2141,-1.2151,-1.2062,-1.2063,-1.2064,0,-1.2136,-1.2147,-1.2128,-1.213,-1.2123,-1.2127,-1.2126,-1.2099,-1.21,-1.209,-1.2099,-1.21,-1.21,-1.2107,-1.209,-1.209,-1.2079,-1.211,-1.2079,-1.2086,-1.208,-1.208,-1.2081,-1.2116,-1.2117,-1.2118,-1.2119,0,-1.2209,-1.2198,-1.2198,-1.2195,-1.2195,-1.2191,-1.2186,-1.2189,-1.216,-1.2163,-1.2166,-1.2165,-1.2165,-1.2166,-1.2163,-1.2155,-1.2133,-1.2129,-1.2134,-1.2143,-1.2151,-1.2147,-1.2051,-1.2127,-1.2126,-1.2126,-1.2125,-1.2125,-1.2267,-1.2276,-1.2263,-1.2265,-1.2258,-1.2253,-1.226,-1.2245,-1.2247,-1.2244,-1.2228,-1.2235,-1.2224,-1.2217,-1.2212,-1.2216,-1.2202,-1.221,-1.2212,-1.2215,-1.222,-1.215,-1.2216,-1.2215,-1.2215,-1.2215,-1.2215,0,-1.234,-1.233,-1.2332,-1.2324,-1.2326,-1.2304,-1.2297,-1.23,-1.2305,-1.2297,-1.2297,-1.2301,-1.2303,-1.2286,-1.2286,-1.2293,-1.2283,-1.2294,-1.2293,-1.2292,-1.2232,-1.2228,-1.2302,-1.2302,-1.2302,-1.2302,-1.2302,-1.2302,-1.2378,-1.2392,-1.2379,-1.239,-1.238,-1.2386,-1.2384,-1.238,-1.2373,-1.2379,-1.238,-1.2369,-1.2357,-1.2356,-1.2357,-1.2352,-1.2354,-1.2368,-1.236,-1.2305,-1.2296,-1.2288,-1.2284,-1.2369,-1.2369,-1.242,-1.242,-1.242]},{"header":{"parameterUnit":"m.s-1","parameterCategory":1,"la1":30.2991,"la2":30.254,"lo1":-89.0895,"lo2":-89.0444,"dy":0.0017,"dx":0.0017,"nx":28,"ny":28,"refTime":"2025-09-02T03:00:00:Z","depth":0,"parameterNumber":3,"parameterNumberName":"V-component_of_WINDS"},"data":[0,0,0,0,0,0,0,0,0,0,0,0,0,0,0,0,0,0,0,0,0,0,0,0,0,0,0,0,0,0,0,0,0,0,0,0,0,0,0,0,0,0,0,0,0,0,0,0,0,0,0,0,0,0,0,0,0,0,2.9549,2.9549,0,2.9517,2.9516,2.9516,2.9502,2.9502,2.9502,2.9502,2.9465,2.9464,2.9462,0,0,0,0,0,0,0,0,0,0,0,0,0,2.9596,2.9595,2.9549,2.9549,2.9548,2.9517,2.9516,2.9516,2.9502,2.9502,2.9502,2.9502,2.9465,2.9464,2.9462,0,0,0,0,0,0,0,0,0,0,0,0,0,2.9571,2.9595,2.9549,2.9538,2.9536,2.9517,2.9516,2.9516,2.9502,2.9502,2.9502,2.9502,2.9465,2.9464,2.9462,2.945,0,0,2.9457,2.9457,0,0,0,0,0,0,0,0,2.9572,2.9569,2.954,2.9539,2.9537,2.9514,2.9519,2.9494,2.9502,2.9515,2.9502,2.9502,2.948,2.9478,2.9471,2.9449,2.9447,2.9457,2.9456,2.9456,2.9455,0,0,0,0,0,0,0,2.9574,2.957,2.9536,2.9539,2.9538,2.9533,2.953,2.9514,2.9497,2.9514,2.9513,2.9509,2.948,2.9473,2.947,2.9446,2.9457,2.9456,2.9455,2.9454,2.9412,2.9412,0,0,0,0,0,0,2.9578,2.9572,2.9537,2.9535,2.9555,2.9532,2.9528,2.9521,2.9498,2.9494,2.9509,2.9509,2.9475,2.9472,2.9469,2.9453,2.9456,2.9454,2.9453,2.9412,2.9412,2.9412,0,0,0,0,0,0,2.9579,2.9575,2.9539,2.9553,2.9548,2.9531,2.9523,2.952,2.9513,2.9494,2.9491,2.9505,2.9475,2.9471,2.9455,2.9452,2.9453,2.9452,2.9413,2.9412,2.9412,2.9423,0,0,0,0,0,0,2.958,2.9575,2.9572,2.9553,2.9548,2.9527,2.9523,2.9519,2.9511,2.951,2.949,2.9486,2.9475,2.9458,2.9454,2.945,2.9451,2.9413,2.9412,2.9412,2.9422,2.9423,2.9423,0,0,0,0,0,2.9582,2.9575,2.9572,2.9567,2.9543,2.9527,2.9523,2.9512,2.9511,2.9506,2.9494,2.9487,2.9453,2.9456,2.9452,2.9447,2.9413,2.9413,2.9412,2.9422,2.9423,2.9423,0,0,0,0,0,0,2.9592,2.9572,2.9568,2.9555,2.9543,2.9524,2.9518,2.9512,2.9499,2.9498,2.9483,2.9479,2.9464,2.9454,2.9458,2.9434,2.9432,2.9431,2.9442,2.9442,2.9442,2.9444,2.9449,0,0,0,0,0,2.9593,2.9583,2.9566,2.9556,2.955,2.9535,2.9528,2.952,2.9506,2.95,2.9487,2.9472,2.9459,2.945,2.9436,2.9421,2.9416,2.9415,2.9416,2.9416,2.9415,2.9406,2.9405,2.9411,2.9411,2.9411,0,0,2.9594,2.9582,2.9576,2.9558,2.9547,2.9536,2.9531,2.9519,2.951,2.9498,2.9483,2.9473,2.9455,2.944,2.9433,2.9431,2.9412,2.9416,2.9416,2.9415,2.9406,2.9405,2.9405,2.9411,2.9411,2.9411,0,0,2.9591,2.9581,2.9572,2.9562,2.9546,2.9537,2.9535,2.9517,2.951,2.9495,2.9486,2.9474,2.9451,2.9439,2.943,2.9422,2.9415,2.9418,2.9419,2.9411,2.941,2.941,2.9407,2.9406,2.9417,2.9417,2.9417,0,2.9594,2.9578,2.9567,2.9557,2.9548,2.9538,2.9528,2.9518,2.9499,2.9493,2.9491,2.9462,2.945,2.9431,2.943,2.9423,2.9419,2.942,2.9412,2.9411,2.941,2.9407,2.9406,2.9418,2.9418,2.9417,2.9417,0,2.9582,2.9571,2.9566,2.9549,2.9539,2.9529,2.9516,2.9508,2.9501,2.9491,2.9475,2.946,2.9443,2.9438,2.9431,2.9419,2.9419,2.9415,2.9412,2.941,2.9407,2.9406,2.9418,2.9418,2.9418,2.9418,0,0,2.9584,2.9562,2.956,2.9552,2.9535,2.9525,2.9514,2.9499,2.9492,2.9478,2.9468,2.9449,2.9445,2.9435,2.9426,2.9419,2.9414,2.9416,2.9415,2.9416,2.9399,2.9402,2.9401,2.9409,2.9409,2.9409,2.94,0,2.9578,2.9559,2.9549,2.9534,2.9523,2.9514,2.9504,2.9491,2.9482,2.947,2.9459,2.9446,2.9442,2.9436,2.9429,2.9416,2.941,2.9416,2.9398,2.9397,2.9403,2.9399,2.9402,2.9395,2.9399,2.9399,2.9399,0,2.9568,2.9557,2.9541,2.9525,2.952,2.9512,2.9497,2.9486,2.9472,2.9465,2.9454,2.9446,2.9432,2.9432,2.9412,2.9417,2.9409,2.9402,2.9401,2.9398,2.9398,2.9396,2.9393,2.9392,2.9397,2.9397,2.9397,0,2.9571,2.9551,2.9539,2.9533,2.9514,2.9508,2.9499,2.9485,2.9477,2.9463,2.9458,2.9442,2.9434,2.9422,2.9409,2.941,2.9391,2.9389,2.9384,2.9385,2.938,2.9381,2.9375,2.9376,2.9376,2.9376,2.9376,0,2.9565,2.9555,2.954,2.9532,2.9521,2.951,2.9498,2.9489,2.9477,2.9466,2.9457,2.9447,2.9431,2.9419,2.9408,2.9394,2.939,2.9384,2.9381,2.9384,2.9385,2.9378,2.9378,2.9375,2.9376,2.9376,2.9376,0,2.9566,2.9555,2.9541,2.9525,2.952,2.9513,2.9498,2.949,2.948,2.9467,2.9464,2.9448,2.9433,2.942,2.94,2.9393,2.9378,2.9375,2.9383,2.9382,2.9378,2.9378,2.9367,2.9365,2.9368,2.9368,2.9368,0,2.9562,2.9555,2.9538,2.9532,2.9524,2.9513,2.9504,2.9493,2.9484,2.9467,2.9461,2.9446,2.9433,2.941,2.9396,2.938,2.9376,2.9374,2.9374,2.9377,2.9376,2.9376,2.9375,2.9373,2.9374,2.9374,2.9374,0,2.9558,2.9553,2.9542,2.9529,2.952,2.9509,2.9498,2.9492,2.9478,2.9469,2.9455,2.9445,2.9425,2.941,2.9393,2.9383,2.9376,2.9374,2.9372,2.9375,2.938,2.9377,2.9383,2.9374,2.9374,2.9374,2.9374,2.9374,2.9556,2.9549,2.9537,2.9525,2.9515,2.9505,2.9497,2.9486,2.9475,2.9459,2.9452,2.9438,2.9423,2.94,2.939,2.9377,2.9375,2.9373,2.9372,2.9371,2.9372,2.9383,2.9374,2.9374,2.9374,2.9374,2.9374,0,2.9551,2.9542,2.9532,2.9517,2.9507,2.9503,2.949,2.9482,2.947,2.9457,2.9445,2.9429,2.9414,2.9399,2.9384,2.9376,2.9373,2.9373,2.9373,2.937,2.9374,2.9378,2.9376,2.9376,2.9376,2.9376,2.9376,2.9376,2.9547,2.9535,2.9529,2.9512,2.9503,2.949,2.9483,2.9473,2.9463,2.9445,2.9434,2.9425,2.9411,2.9394,2.938,2.9376,2.9371,2.9372,2.9367,2.937,2.937,2.937,2.9373,2.9371,2.9371,2.9364,2.9364,2.9364]}]]